Orbital Elements at Epoch 2459000.5 (2020-May-31.0) TDB
Reference: JPL 24 (heliocentric ecliptic J2000)
Element | Value | Uncertainty (1-sigma) | Units |
e | .2614261780379665 | 3.7717e-08 | |
a | 3.077454531110927 | 1.489e-08 | au |
q | 2.272927354956975 | 1.2024e-07 | au |
i | 2.334916015720457 | 4.4717e-06 | deg |
node | 10.2838562559521 | 8.9868e-05 | deg |
peri | 311.7725652131742 | 9.0099e-05 | deg |
M | 177.3174066946777 | 7.4795e-06 | deg |
tp | 2458029.241651876483 (2017-Oct-02.74165188) | 3.9286e-05 | TDB |
period | 1971.904574075644 5.40 | 1.4312e-05 3.918e-08 | d yr |
n | .182564615312967 | 1.325e-09 | deg/d |
Q | 3.881981707264879 | 1.8783e-08 | au |
|
| | Orbit Determination Parameters
Additional Information
|